Probability
1 1 0 0 0 0 0 0 0 0 0 0 0 0 0 0 0 0 0 0 0 0 0 0 0 0 0 0 0 0 0 0 0 0 0 0 0 0 0 0 0 0 0
1 0 0 0 0 0 0 0 0 0 0 0 0 0 0 0 0 0 0 0 0 0 0 0 0 0 0 0 0 0 0 0 0 0 0 0 0 0 0 0 0 0 0
0 0 0 0 0 0 0 0 0 0 0 0 0 0 0 0 0 0 0 0 0 0 0 0 0 0 0 0 0 0 0 0 0 0 0 0 0 0 0 0 0 0 0
0 0 0 0 0 0 0 0 0 0 0 0 0 0 0 0 0 0 0 0 0 0 0 0 0 0 0 0 0 0 0 0 0 0 0 0 0 0 0 0 0 0 0
0 0 0 0 0 0 0 0 0 0 0 0 0 0 0 0 0 0 0 0 0 0 0 0 0 0 0 0 0 0 0 0 0 0 0 0 0 0 0 0 0 0 0
0 0 0 0 0 0 0 0 0 0 0 0 0 0 0 0 0 0 0 0 0 0 0 0 0 0 0 0 0 0 0 0 0 0 0 0 0 0 0 0 0 0 0
0 0 0 0 0 0 0 0 0 0 0 0 0 0 0 0 0 0 0 0 0 0 0 0 0 0 0 0 0 0 0 0 0 0 0 0 0 0 0 0 0 0 0
0 0 0 0 0 0 0 0 0 0 0 0 0 0 0 0 0 0 0 0 0 0 0 0 0 0 0 0 0 0 0 0 0 0 0 0 0 0 0 0 0 0 0
0 0 0 0 0 0 0 0 0 0 0 0 0 0 0 0 0 0 0 0 0 0 0 0 0 0 0 0 0 0 0 0 0 0 0 0 0 0 0 0 0 0 0
0 0 0 0 0 0 0 0 0 0 0 0 0 0 0 0 0 0 0 0 0 0 0 0 0 0 0 0 0 0 0 0 0 0 0 0 0 0 0 0 0 0 0
0 0 0 0 0 0 0 0 0 0 0 0 0 0 0 0 0 0 0 0 0 0 0 0 0 0 0 0 0 0 0 0 0 0 0 0 0 0 0 0 0 0 0
0 0 0 0 0 0 0 0 0 0 0 0 0 0 0 0 0 0 0 0 0 0 0 0 0 0 0 0 0 0 0 0 0 0 0 0 0 0 0 0 0 0 0
0 0 0 0 0 0 0 0 0 0 0 0 0 0 0 0 0 0 0 0 0 0 0 0 0 0 0 0 0 0 0 0 0 0 0 0 0 0 0 0 0 0 0
0 0 0 0 0 0 0 0 0 0 0 0 0 0 0 0 0 0 0 0 0 0 0 0 0 0 0 0 0 0 0 0 0 0 0 0 0 0 0 0 0 0 0
0 0 0 0 0 0 0 0 0 0 0 0 0 0 0 0 0 0 0 0 0 0 0 0 0 0 0 0 0 0 0 0 0 0 0 0 0 0 0 0 0 0 0
0 0 0 0 0 0 0 0 0 0 0 0 0 0 0 0 0 0 0 0 0 0 0 0 0 0 0 0 0 0 0 0 0 0 0 0 0 0 0 0 0 0 0
0 0 0 0 0 0 0 0 0 0 0 0 0 0 0 0 0 0 0 0 0 0 0 0 0 0 0 0 0 0 0 0 0 0 0 0 0 0 0 0 0 0 0
0 0 0 0 0 0 0 0 0 0 0 0 0 0 0 0 0 0 0 0 0 0 0 0 0 0 0 0 0 0 0 0 0 0 0 0 0 0 0 0 0 0 0
0 0 0 0 0 0 0 0 0 0 0 0 0 0 0 0 0 0 0 0 0 0 0 0 0 0 0 0 0 0 0 0 0 0 0 0 0 0 0 0 0 0 0
0 0 0 0 0 0 0 0 0 0 0 0 0 0 0 0 0 0 0 0 0 0 0 0 0 0 0 0 0 0 0 0 0 0 0 0 0 0 0 0 0 0 0
0 0 0 0 0 0 0 0 0 0 0 0 0 0 0 0 0 0 0 0 0 0 0 0 0 0 0 0 0 0 0 0 0 0 0 0 0 0 0 0 0 0 0
0 0 0 0 0 0 0 0 0 0 0 0 0 0 0 0 0 0 0 0 0 0 0 0 0 0 0 0 0 0 0 0 0 0 0 0 0 0 0 0 0 0 0
0 0 0 0 0 0 0 0 0 0 0 0 0 0 0 0 0 0 0 0 0 0 0 0 0 0 0 0 0 0 0 0 0 0 0 0 0 0 0 0 0 0 0
0 0 0 0 0 0 0 0 0 0 0 0 0 0 0 0 0 0 0 0 0 0 0 0 0 0 0 0 0 0 0 0 0 0 0 0 0 0 0 0 0 0 0
0 0 0 0 0 0 0 0 0 0 0 0 0 0 0 0 0 0 0 0 0 0 0 0 0 0 0 0 0 0 0 0 0 0 0 0 0 0 0 0 0 0 0
0 0 0 0 0 0 0 0 0 0 0 0 0 0 0 0 0 0 0 0 0 0 0 0 0 0 0 0 0 0 0 0 0 0 0 0 0 0 0 0 0 0 0
Wind_Speed
14 14 14 14 13 13 13 12 11 10 10 11 10 10 10 10 9 9 10 10 10 9 8 9 8 8 6 5 5 4 4 4 3 3 2 3 3 5 5 6 5 6 1
13 14 14 14 14 13 13 12 11 11 10 10 10 10 9 9 9 9 9 9 9 9 8 8 8 6 6 6 5 5 5 4 3 3 3 3 3 4 5 6 5 5 5
13 14 14 14 14 14 12 11 11 10 10 9 9 9 9 9 8 8 8 9 8 8 8 7 7 6 6 6 5 5 4 3 3 3 3 2 2 3 5 5 5 4 6
14 14 14 13 13 13 12 11 10 10 10 9 9 9 8 8 8 8 8 8 8 7 7 6 7 7 7 5 4 4 4 3 2 2 3 2 2 3 4 5 5 5 5
14 14 14 12 12 12 11 11 10 9 9 8 8 8 8 7 7 6 6 7 6 6 6 6 7 6 7 6 6 6 5 5 4 4 3 3 5 5 6 6 6 6 4
13 13 12 12 11 11 11 10 9 9 8 8 8 8 8 8 8 9 5 6 5 5 5 5 5 3 2 3 2 4 6 6 7 6 5 6 6 6 6 6 6 7 5
12 12 12 11 11 10 10 10 9 9 8 8 8 9 10 9 7 7 7 3 5 5 4 4 4 5 3 4 2 7 6 6 5 6 7 7 7 7 8 8 7 7 6
11 11 11 10 10 9 9 9 9 8 7 7 8 8 9 8 6 5 7 0 4 4 4 4 4 4 7 7 6 4 3 2 1 4 5 6 6 7 7 7 7 8 6
10 10 10 9 9 9 9 8 7 7 7 7 7 7 8 8 6 6 10 2 3 4 3 4 5 5 7 8 6 5 4 3 3 5 6 7 8 8 8 7 7 6 6
9 9 9 8 8 8 8 7 7 6 6 6 7 7 7 7 6 7 11 1 3 2 3 4 6 6 6 8 7 6 6 6 6 3 4 7 7 6 8 6 7 7 7
9 9 8 8 7 7 6 6 5 5 6 6 6 6 6 6 6 6 9 5 4 2 3 3 6 6 5 6 7 6 6 8 7 5 4 3 3 2 2 3 4 5 6
8 8 8 7 6 6 6 5 5 5 5 5 5 5 5 5 5 5 5 5 7 4 4 5 6 4 4 5 5 6 9 10 5 4 4 4 4 5 5 5 5 4 4
8 8 7 7 6 5 5 5 4 3 2 3 4 4 5 5 6 3 2 1 3 3 5 5 3 3 5 2 0 5 8 5 5 5 5 5 5 5 5 3 2 2 3
7 7 6 6 6 5 3 3 3 3 3 3 3 3 4 4 4 3 2 4 5 3 1 3 7 7 5 2 2 2 4 5 5 5 5 5 4 4 4 4 5 4 3
7 5 5 5 6 5 6 6 5 7 7 5 4 3 3 5 7 7 7 6 7 6 6 3 1 2 3 4 4 4 4 4 4 5 5 5 5 5 4 4 5 5 4
6 5 4 4 4 4 6 6 8 7 5 6 8 7 6 7 5 4 3 4 5 7 7 2 3 4 5 5 5 5 5 5 5 5 5 5 5 5 5 5 5 5 5
4 3 3 3 4 3 3 4 6 5 3 2 2 3 4 4 3 2 2 3 5 7 4 3 3 4 5 5 5 5 5 5 5 5 5 6 6 6 6 6 6 6 6
4 4 2 2 2 3 2 2 3 4 6 6 5 3 1 1 0 2 4 6 4 2 3 4 4 4 5 5 5 5 6 5 5 5 5 6 6 6 6 6 5 7 7
4 3 3 2 2 3 2 2 2 3 3 4 5 6 5 5 5 3 5 3 3 4 4 4 5 5 5 5 5 5 5 5 6 6 5 6 6 7 7 7 6 5 6
3 4 1 2 3 3 3 2 2 2 2 2 2 3 4 4 2 2 0 3 3 4 4 4 5 5 5 5 5 5 5 5 5 5 5 6 6 6 7 7 7 7 6
5 6 5 3 2 3 2 3 2 2 2 2 3 5 5 2 2 2 2 2 3 4 4 5 5 5 5 5 5 6 6 5 5 6 6 6 6 6 7 7 7 7 7
4 4 4 3 3 2 2 3 3 3 3 2 3 5 3 3 2 2 2 2 3 3 4 5 5 5 5 6 6 6 6 6 6 7 7 7 7 7 7 7 7 7 7
4 4 3 3 3 4 3 3 3 3 3 2 2 2 2 1 2 2 2 2 2 3 3 4 4 5 6 5 5 5 6 7 8 8 8 8 7 7 7 7 7 7 7
4 4 3 4 4 4 4 3 3 3 3 2 2 1 1 1 1 2 2 2 2 2 3 3 4 6 7 6 5 5 7 9 10 8 10 9 8 7 7 6 7 8 7
4 3 3 3 4 4 4 3 3 3 3 3 2 1 1 1 1 1 1 1 1 2 3 3 3 4 6 7 7 8 9 8 8 9 10 8 8 7 7 7 6 7 7
4 4 3 4 4 4 4 4 4 3 3 3 2 1 1 1 1 1 1 1 1 1 1 2 3 4 5 6 8 8 7 8 8 9 9 8 7 6 8 7 8 7 7
Wind_Direction
84 87 88 87 88 90 91 91 91 90 90 90 91 90 89 87 84 84 86 86 83 80 76 73 65 49 47 49 48 45 39 25 30 53 38 48 357 337 344 329 317 310 20
89 89 89 89 90 90 90 90 90 89 88 89 89 89 90 88 87 88 88 86 84 80 75 72 68 66 57 45 40 45 46 25 11 25 9 25 5 343 337 314 323 329 319
94 93 92 91 92 92 92 92 91 90 88 86 88 89 88 88 87 87 88 86 82 77 73 70 65 58 52 51 34 37 34 35 14 350 9 16 342 356 321 317 326 321 310
97 96 94 93 94 95 94 92 91 91 89 87 87 88 90 90 92 92 91 88 85 79 72 66 56 47 41 34 39 35 18 357 6 339 358 359 352 355 325 340 341 341 334
100 97 96 97 98 97 94 92 91 90 91 91 93 93 91 84 69 73 95 94 90 87 80 70 62 48 29 4 4 6 357 348 352 354 359 4 13 359 356 348 342 331 341
101 101 102 102 100 98 97 95 93 91 92 93 92 91 83 71 44 25 20 95 88 82 78 76 97 98 98 210 275 313 329 339 351 343 360 6 5 359 352 335 342 337 341
104 106 106 106 103 102 102 100 98 98 96 93 91 89 85 72 47 31 3 42 83 70 61 46 44 57 348 11 214 220 227 229 266 317 340 349 347 357 338 332 345 334 329
111 111 111 109 106 105 103 101 100 99 97 95 91 90 89 74 44 20 332 11 85 78 60 42 29 29 29 350 340 0 11 54 294 289 328 328 337 335 322 309 308 300 291
114 114 114 113 112 111 107 104 103 103 101 101 95 93 92 86 46 6 324 125 95 89 69 47 14 29 35 335 324 357 7 29 183 231 271 284 293 286 289 301 318 323 337
118 115 113 110 108 106 106 106 104 107 107 103 96 90 85 79 56 14 335 351 88 103 110 116 81 24 2 337 336 358 4 4 348 330 246 238 247 236 229 271 317 331 339
117 115 112 109 108 106 107 106 109 109 105 100 105 102 90 77 91 42 1 347 20 40 68 74 72 35 5 343 325 355 351 316 307 317 324 329 325 329 323 321 331 325 334
118 116 113 111 107 106 109 112 112 116 125 122 121 122 115 108 68 67 24 10 336 1 32 45 63 24 353 344 351 353 312 292 304 341 348 356 357 359 2 351 343 327 315
122 115 108 104 95 99 111 118 124 131 119 119 126 119 110 110 124 162 181 322 325 346 43 44 5 303 278 230 124 303 302 322 346 345 355 355 354 350 327 324 324 302 284
124 120 120 115 107 97 88 90 89 85 93 104 98 100 106 109 78 70 113 158 191 204 169 173 215 241 261 316 279 303 347 5 339 340 345 342 338 335 339 350 348 341 338
129 128 123 109 99 101 79 49 42 56 33 16 49 68 65 76 50 11 346 6 3 13 329 303 328 2 354 12 9 11 357 358 348 348 340 337 342 346 350 353 340 337 348
142 143 135 123 119 122 123 112 58 56 71 54 31 15 62 56 29 6 355 337 319 313 301 335 14 5 3 3 358 358 3 6 353 340 340 344 344 342 343 345 348 347 346
132 130 140 133 132 127 120 128 134 130 123 104 59 19 11 10 358 331 290 275 276 284 286 17 15 6 359 357 355 355 357 360 343 333 342 342 340 338 340 342 349 349 346
153 145 162 142 137 124 119 123 129 140 149 151 153 141 127 125 163 261 263 264 246 255 12 19 10 4 359 355 353 352 346 344 345 339 342 343 340 336 338 341 348 352 339
173 156 155 138 145 136 139 138 124 119 125 133 140 143 161 173 184 220 262 296 12 22 23 17 10 2 357 350 348 345 338 336 344 332 339 341 336 333 336 338 339 340 317
148 91 179 174 159 156 156 152 142 134 127 123 130 127 154 197 198 158 136 16 14 27 17 10 8 0 351 345 343 343 338 337 338 333 342 337 334 331 332 332 334 333 335
163 148 185 211 173 157 155 150 148 143 135 136 111 76 1 324 48 41 34 33 23 21 18 358 353 1 359 349 353 349 341 343 347 345 340 337 334 332 327 326 331 333 339
164 167 177 167 155 150 153 155 150 146 141 142 133 137 201 266 29 31 40 43 37 27 22 360 352 7 10 1 353 340 342 349 352 348 338 332 328 328 330 333 338 338 340
176 169 164 160 149 141 186 165 156 156 152 151 140 142 161 68 42 37 45 41 34 27 18 6 356 13 15 3 349 339 348 352 343 333 324 324 326 327 330 334 335 338 351
171 176 168 161 164 172 168 160 160 157 156 153 151 146 112 93 36 48 30 39 35 32 24 17 14 15 7 360 345 358 17 354 331 316 318 316 317 327 332 334 338 352 354
167 168 172 172 171 170 162 159 159 161 160 158 158 159 143 136 106 103 65 59 40 34 28 17 13 14 7 4 8 12 7 337 318 315 307 303 318 334 333 337 348 356 1
167 166 173 169 172 169 165 166 164 166 164 163 167 159 159 174 137 78 87 58 16 66 24 29 27 15 2 7 23 7 344 330 322 309 299 302 328 357 346 339 351 358 10